Current Version              Previous Version:    01  02  03  04  05  06  07  08  09  10  11  12  13  14  15  16  17  18  19  20  21  22  23  24  25  26  27  28  29  30  
   31  32  33  34  35  36  37  38  39  40  41  42  43  44  45  46  47  48  49  50  51  52  53  54  55  56  57  58  59  60  

[Printable]
233
ASUS44 KLUB 232210
RWRTX
WEST TEXAS WEATHER ROUNDUP
NATIONAL WEATHER SERVICE LUBBOCK TX
500 PM CDT WED APR 23 2014

NOTE: "FAIR" INDICATES FEW OR NO CLOUDS BELOW 12,000 FEET WITH NO
SIGNIFICANT WEATHER AND/OR OBSTRUCTIONS TO VISIBILITY.

TXZ004-006>008-010-012-014-016-OKZ002-232300-
TEXAS PANHANDLE/OKLAHOMA PANHANDLE

CITY           SKY/WX    TMP DP  RH WIND       PRES   REMARKS
AMARILLO       CLOUDY    88  32  13 SW31G43   29.62F
BORGER         PTSUNNY   90  40  17 SW21G31   29.57F
CANADIAN       CLOUDY    83  57  41 S24G32    29.59F
DALHART        MOSUNNY   87  21   9 SW26G45   29.60F
DUMAS          PTSUNNY   87  23   9 SW26G43   29.58F
GUYMON         CLOUDY    89  32  13 S24G40    29.51F
HEREFORD       MOSUNNY  N/A N/A N/A SW32G41   29.64F
PAMPA          PTSUNNY   80  54  40 SE21G32   29.62F
PERRYTON       CLOUDY    81  55  40 S36G41    29.57F
$$

TXZ026-029-035-045-048-232300-
SOUTHERN PANHANDLE/SOUTH PLAINS/ROLLING PLAINS

CITY           SKY/WX    TMP DP  RH WIND       PRES   REMARKS
CHILDRESS      PTSUNNY   85  55  35 S24G35    29.60F
SEMINOLE       PTSUNNY   86  29  12 SW17G26   29.72F
LUBBOCK        CLOUDY    89  30  12 SW30G37   29.66F
PLAINVIEW      CLOUDY    90  32  12 SW20G31   29.65F
SNYDER         PTSUNNY   91  45  20 SW22G33   29.66F
$$

TXZ052-054-060>062-072-078-127-140-154-169-232300-
PERMIAN BASIN/CONCHO VALLEY/BIG COUNTRY/EDWARDS PLATEAU

CITY           SKY/WX    TMP DP  RH WIND       PRES   REMARKS
ABILENE        PTSUNNY   90  55  30 S24G33    29.68F
BIG SPRING     CLOUDY    94  45  18 S17G24    29.70F
BRADY          SUNNY     90  57  33 SE13      29.73F
BROWNWOOD      MOSUNNY   90  55  31 S17G28    29.71F
JUNCTION       SUNNY     88  55  32 S20G28    29.73F
MIDLAND        PTSUNNY   91  39  16 SW16G29   29.70F
ODESSA           N/A    N/A N/A N/A MISG      29.72F
SAN ANGELO     MOSUNNY   93  50  23 S23G31    29.68F
SONORA         MOSUNNY   90  54  29 S18G24    29.75S
SWEETWATER     PTSUNNY   90  48  23 SE20G30   29.70F
WINK           CLOUDY    91  28  10 W14G21    29.68F
$$

TXZ055-058-074-075-080-082-232300-
FAR WEST/SOUTHWEST MOUNTAINS/TRANS PECOS

CITY           SKY/WX    TMP DP  RH WIND       PRES   REMARKS
ALPINE         CLOUDY    86  19   8 SW18G25   29.87F
DRYDEN           N/A     94  58  29 SE24G30   29.68F
EL PASO        MOSUNNY   86  15   7 SW22G36   29.77F
FORT STOCKTON  PTSUNNY   93  25   8 W13       29.71F
GUADALUPE PASS PTSUNNY   78  20  11 SW23G49   29.86F
MARFA          CLOUDY    84  27  12 SW10G21   29.88F
PECOS          PTSUNNY   91  32  12 SW16      29.69F
PRESIDIO       FAIR      93  16   6 MISG      29.73S
$$

TXZ014-016-019-021>030-083-232300
TEXAS TECH WEST TEXAS MESONET/TEXAS PANHANDLE/NORTHERN SOUTH PLAINS

CITY           SKY/WX    TMP DP  RH WIND       PRES   REMARKS
ABERNATHY 5ENE   N/A     89  29  12 SW22G33   29.67F
AMARILLO 9NNE    N/A     87  26  10 S30       29.59F
AMARILLO 7SSE    N/A     88  26  10 S31       29.62F
AMHERST 1NE      N/A     86  17   8 SW21G31   29.67F
BOOTLEG 11WNW    N/A     84  14   7 SW30      29.67F
CANADIAN 6E      N/A     82  56  40 SE20      29.59F
CAPROCK CYN SP   N/A     89  43  19 S26       29.59F
CHILDRESS 2NNE   N/A     85  54  34 S22       29.59S
CLARENDON 2WSW   N/A     85  46  26 S18G31    29.60F
CLAUDE 12SW      N/A     85  38  18 SW20      29.61F
DIMMITT 2NE      N/A     86  17   7 S31       29.65F
FLOYDADA 2NNE    N/A     87  35  15 SW21      29.65F
FRIONA 2NE       N/A     85  19   8 S25       29.65F
GOODLETT 3W      N/A     88  52  29 S29       29.58F
HART 3N          N/A     86  22   9 S29       29.66F
HEREFORD 2NW     N/A     86  16   7 SW25G35   29.63F
MCLEAN 1E        N/A     73  58  58 SE23G35   29.64S
MEMPHIS 1NE      N/A     68  62  80 N7        29.59F
MULESHOE 2SSW    N/A     87   9   5 SW25G37   29.65F
OLTON 6S         N/A     85  21   9 SW24      29.66F
PALO DURO SP     N/A     88  31  13 SW23      29.62F
PAMPA 2E         N/A     79  57  46 SE17      29.62F
PLAINVIEW 1S     N/A     86  29  12 SW23G32   29.65F
SILVERTON 7ESE   N/A     88  42  19 S25G39    29.63F
TULIA 2ENE       N/A     86  27  11 S28       29.64F
UMBARGER 3NNE    N/A     88  22   9 SW36      29.63F
$$

TXZ033>036-039>041-045>048-232300
TEXAS TECH WEST TEXAS MESONET/SOUTH PLAINS

CITY           SKY/WX    TMP DP  RH WIND       PRES   REMARKS
AIKEN 3WSW       N/A     88  36  15 SW20      29.65F
ANDREWS 2NE      N/A     89  26  10 SW13G23   29.71F
ANTON 6SSW       N/A     87  26  11 SW22      29.67F
BROWNFIELD 2S    N/A     86  29  13 SW22      29.69F
DENVR CTY 7WNW   N/A     87  18   8 SW25G36   29.70F
GAIL 2ESE        N/A     89  41  18 SW17      29.65F
LAMESA 2SE       N/A     86  46  24 SW14G24   29.69F
LEVELLAND 4S     N/A     86  19   8 SW21      29.68F
LUBBOCK 3WNW     N/A     89  29  11 SW17      29.67F
MORTON 1ENE      N/A     87  13   6 SW28G38   29.68F
ODONNELL 1N      N/A     88  34  14 SW18G28   29.68F
PLAINS 3N        N/A     86  18   8 SW23      29.70F
RALLS 1SE        N/A     90  38  16 SW23      29.66F
REESE CENTER     N/A     87  26  11 SW24      29.67F
SEAGRAVES 1SW    N/A     86  29  12 SW22      29.70F
SEMINOLE 2NNE    N/A     86  27  12 SW18      29.70F
SLATON 2NE       N/A     89  35  14 SW20      29.66F
SNYDER 3E        N/A     91  45  20 S20G30    29.65F
SUNDOWN 8SW      N/A     87  20   8 S25       29.68F
TAHOKA 3NNE      N/A     90  37  15 SW15      29.67F
WOLFFORTH 6SSW   N/A     88  29  12 SW20      29.69F
$$

TXZ031-032-036>038-042>044-232300-
TEXAS TECH WEST TEXAS MESONET/ROLLING PLAINS

CITY           SKY/WX    TMP DP  RH WIND       PRES   REMARKS
ASPERMONT 3NE    N/A     90  53  27 S22G32    29.62F
FLUVANNA 3WNW    N/A     89  41  18 S22       29.66F
GRAHAM 5SSW      N/A     89  37  16 SW18G28   29.67F
GUTHRIE 10WSW    N/A     88  56  34 SE16      29.59F
HASKELL 1NW      N/A     89  50  25 S16       29.62F
KNOX CITY 3NW    N/A     82  55  39 SE18      29.60F
LK A HENRY 1NW   N/A     91  44  19 SW20      29.62F
NORTHFIELD 1S    N/A     85  55  35 S15       29.59S
ODELL 4ENE       N/A     86  56  35 SE23      29.61
PADUCAH 10SW     N/A     82  60  48 SE15      29.61F
POST 1NE         N/A     89  40  18 S13G24    29.65F
RRING SPRGS 3N   N/A     89  50  25 S22G32    29.61F
SEYMOUR 3NW      N/A     86  53  31 SE20      29.63F
SPUR 1W          N/A     90  45  20 S20G30    29.61F
WEINERT 2NNE     N/A     91  53  27 S24       29.61F
WHITE RVR 6NE    N/A     89  41  18 S23       29.63F
$$

TXZ052-054-060>062-072-078-127-140-154-169-232300-
TEXAS TECH WEST TEXAS MESONET/PERMIAN BASIN/
CONCHO VALLEY/BIG COUNTRY/EDWARDS PLATEAU

CITY           SKY/WX    TMP DP  RH WIND       PRES   REMARKS
COYANOSA 2N      N/A     92  39  15 S8        29.68F
JUNCTION 1SSW    N/A     89  58  34 SE14      29.74F
MERTZON 3NNE     N/A     91  52  26 S9        29.70F
SAN ANGELO 7NW   N/A     92  48  21 S21       29.68F
STRLNG CT 4WSW   N/A     91  45  19 S17       29.68F
ST LAWRNCE 5SW   N/A     92  37  14 S22G31    29.68F
SWEETWATR 11SW   N/A     91  49  23 S23       29.68F
WALL 1E          N/A     92  50  23 S15       29.69F
$$

TXZ055-058-074-075-080-082-232300-
TEXAS TECH WEST TEXAS MESONET/FAR WEST/SOUTHWEST MOUNTAINS/TRANS PECOS

CITY           SKY/WX    TMP DP  RH WIND       PRES   REMARKS
PRSMN GAP BBNP   N/A     95  25   8 S13       29.70F
$$